Weather History for YCIN - April, 2013

Change the Weather History Date:

Monday, April 15, 2013

  Actual Average Record
Temperature  
Mean Temperature 82 °F -  
Max Temperature 102 °F - - ()
Min Temperature 61 °F - - ()
Cooling Degree Days 16    
Growing Degree Days 32 (Base 50)    
Moisture  
Dew Point 58 °F    
Average Humidity 54    
Maximum Humidity 89    
Minimum Humidity 10    
Precipitation  
Precipitation 0.00 in - - ()
Sea Level Pressure  
Sea Level Pressure 29.78 in    
Wind  
Wind Speed 2 mph ()    
Max Wind Speed 8 mph    
Max Gust Speed -    
T = Trace of Precipitation, MM = Missing Value Source: Averaged Metar Reports

Daily Weather History Graph

Daily Weather History Graph

Search for Another Location

Airport or City:

Trip Planner

Search our weather history database for the weather conditions in past years. The results will help you decide how hot, cold, wet, or windy it might be!

Date:

Astronomy

Apr. 15, 2013 Rise Set
Actual Time 5:53 AM AWST 5:35 PM AWST
Civil Twilight 5:31 AM AWST 5:57 PM AWST
Nautical Twilight 5:06 AM AWST 6:22 PM AWST
Astronomical Twilight 4:41 AM AWST 6:48 PM AWST
Moon 9:45 AM AWST (4/15) 9:13 PM AWST (4/15)
Length of Visible Light 12h 25m
Length of Day
11h 41m
Waxing Crescent, 20% of the Moon is Illuminated
Apr 15
Waxing Crescent
Apr 18
First Quarter
Apr 26
Full
May 2
Last Quarter
May 10
New

Hourly Weather History & Observations

Time (AWST) Temp. Heat Index Dew Point Humidity Pressure Visibility Wind Dir Wind Speed Gust Speed Precip Events Conditions
12:00 AM 67 °F - 59 °F 68% 29.82 in - SW 1.2 mph - -  
12:00 AM 68.0 °F - 59.0 °F 73% 29.83 in - SW 1.2 mph - N/A   Unknown
1:00 AM 66.2 °F - 60.8 °F 83% 29.80 in - South 3.5 mph - N/A   Unknown
2:00 AM 66.2 °F - 59.0 °F 78% 29.80 in - South 3.5 mph - N/A   Unknown
3:00 AM 65 °F - 60 °F 77% 29.79 in - Calm Calm - -  
3:00 AM 64.4 °F - 59.0 °F 83% 29.80 in - Calm Calm - N/A   Unknown
4:00 AM 64.4 °F - 59.0 °F 83% 29.80 in - Calm Calm - N/A   Unknown
5:00 AM 62.6 °F - 59.0 °F 88% 29.80 in - Calm Calm - N/A   Unknown
6:00 AM 62 °F - 60 °F 89% 29.81 in - Calm Calm - -  
6:00 AM 62.6 °F - 59.0 °F 88% 29.80 in - Calm Calm - N/A   Unknown
7:00 AM 69.8 °F - 64.4 °F 83% 29.83 in - East 3.5 mph - N/A   Unknown
8:00 AM 78.8 °F - 64.4 °F 61% 29.83 in - South 4.6 mph - N/A   Unknown
9:00 AM 85 °F - 63 °F 38% 29.83 in - SSE 4.6 mph - -  
9:00 AM 86.0 °F 86.6 °F 62.6 °F 45% 29.83 in - SSE 4.6 mph - N/A   Unknown
10:00 AM 91.4 °F 91.4 °F 60.8 °F 36% 29.83 in - SE 4.6 mph - N/A   Unknown
11:00 AM 95.0 °F 92.7 °F 53.6 °F 25% 29.80 in - SSE 4.6 mph - N/A   Unknown
12:00 PM 100 °F - 50 °F 11% 29.76 in - NE 5.8 mph - -  
12:00 PM 100.4 °F - 50.0 °F 18% 29.77 in - NE 5.8 mph - N/A   Unknown
1:00 PM 100.4 °F - 50.0 °F 18% 29.74 in - ENE 8.1 mph - N/A   Unknown
2:00 PM 100.4 °F - 44.6 °F 15% 29.71 in - NNE 3.5 mph - N/A   Unknown
3:00 PM 101 °F - 48 °F 10% 29.72 in - East 3.5 mph - -  
3:00 PM 100.4 °F - 48.2 °F 17% 29.71 in - East 3.5 mph - N/A   Unknown
4:00 PM 98.6 °F - 51.8 °F 21% 29.71 in - ENE 5.8 mph - N/A   Unknown
5:00 PM 91.4 °F 90.7 °F 59.0 °F 34% 29.74 in - NNE 3.5 mph - N/A   Unknown
5:55 PM 82.4 °F 82.5 °F 59.0 °F 45% 29.74 in - NW 3.5 mph - N/A   Unknown
6:00 PM 82 °F - 59 °F 35% 29.75 in - NNW 3.5 mph - -  
6:00 PM 82.4 °F 82.5 °F 59.0 °F 45% 29.74 in - NNW 3.5 mph - N/A   Unknown
7:00 PM 77.0 °F - 59.0 °F 54% 29.77 in - North 3.5 mph - N/A   Unknown
8:00 PM 73.4 °F - 59.0 °F 61% 29.80 in - Calm Calm - N/A   Unknown
9:00 PM 72 °F - 61 °F 60% 29.80 in - North 5.8 mph - -  
9:00 PM 71.6 °F - 60.8 °F 69% 29.80 in - North 5.8 mph - N/A   Unknown
10:00 PM 71.6 °F - 64.4 °F 78% 29.80 in - North 3.5 mph - N/A   Unknown
11:00 PM 69.8 °F - 64.4 °F 83% 29.80 in - North 1.2 mph - N/A   Unknown